Regional Weather Roundup
Issued by NWS Cleveland, OH

Home | Current Version | Previous Version | Graphics & Text | Print | Product List | Glossary On
Versions: 1 2 3 4 5 6 7 8 9 10 11 12 13 14 15 16 17 18 19 20 21 22 23 24 25 26 27 28 29 30 31 32 33 34 35 36 37 38 39 40 41 42 43 44 45 46 47 48 49 50
000
ASUS41 KCLE 260810
RWRCLE
OHIO REGIONAL WEATHER ROUNDUP
NATIONAL WEATHER SERVICE CLEVELAND, OH
400 AM EDT SUN APR 26 2015

NOTE: "FAIR" INDICATES FEW OR NO CLOUDS BELOW 12,000 FEET WITH NO
SIGNIFICANT WEATHER AND/OR OBSTRUCTIONS TO VISIBILITY.

OHZ001>008-015>018-024>027-034-035-043-044-260900-
   NORTHWEST OHIO

CITY           SKY/WX    TMP DP  RH WIND       PRES   REMARKS
DEFIANCE       CLEAR     38  28  67 N7        29.82S
FINDLAY        PTCLDY    41  32  70 N13       29.78S
TOLEDO EXPRESS CLEAR     37  25  61 N6        29.82R
TOLEDO EXEC    PTCLDY    41  30  65 NE9       29.82S
LIMA           MOCLDY    38  32  79 N13       29.78R
$$

OHZ009>014-019>023-028>033-038-089-260900-
   NORTHEAST OHIO

CITY           SKY/WX    TMP DP  RH WIND       PRES   REMARKS
CLE-HOPKINS    PTCLDY    37  32  82 N9        29.80S
CLE-LAKEFRONT  CLEAR     41  31  67 NE8       29.77S
CUY CO. ARPT   NOT AVBL
LORAIN-ELYRIA  PTCLDY    36  32  85 NE7       29.78S
ASHTABULA      CLEAR     35  29  78 CALM      29.78R
AKRON-CANTON   MOCLDY    40  24  53 N12       29.73R
WOOSTER        MOCLDY    35  30  82 N9        29.74S WCI  28
MANSFIELD      MOCLDY    37  29  72 N9        29.74S
YOUNGSTOWN     PTCLDY    37  27  67 N9        29.73R
$$

OHZ042-051>053-060>062-070>072-077>081-260900-
  SOUTHWEST OHIO

CITY           SKY/WX    TMP DP  RH WIND       PRES   REMARKS
CINC-COVINGTON CLOUDY    44  38  79 N10       29.71S
CINC-LUNKEN    CLOUDY    44  38  79 N7        29.73S
HAMILTON       CLOUDY    43  31  62 N10       29.73S
DAYTON         CLOUDY    42  31  64 N14       29.75S
WRIGHT-PAT AFB CLOUDY    42  31  65 N10       29.73S
DAYTON GENERAL CLOUDY    41  29  62 NE13      29.71F
WILMINGTON     CLOUDY    39  31  72 N9        29.71R
$$

OHZ036-037-039>041-045>050-054>059-063>069-073>076-082>088-260900-
  CENTRAL AND SOUTHEAST OHIO

CITY           SKY/WX    TMP DP  RH WIND       PRES   REMARKS
COLUMBUS       CLOUDY    41  32  70 N10       29.70F
OSU AIRPORT    CLOUDY    40  31  70 N12       29.72S
BOLTON FIELD   CLOUDY    40  32  71 N12       29.71S
RICKENBACK AFB CLOUDY    42  32  68 N10       29.70S
NEWARK         CLOUDY    43  29  57 NE6       29.70S
MARION         MOCLDY    38  31  76 N13       29.75R
LANCASTER      CLOUDY    43  33  68 N8        29.70S
ZANESVILLE     MOCLDY    41  32  70 N7        29.68F
NEW PHILLY     CLOUDY    44  29  55 N3        29.71S
$$


USA.gov is the U.S. government's official web portal to all federal, state and local government web resources and services.